Location: Penum?ka
(16.4840°N, 80.5772°E)
Time: 00:58:28
(UTC+00:00)

Cosmos 909 Rocket - Pass Details

Date: 19 May 2025
Orbit: 985 x 2093 km, 65.9° (Epoch: 24 June)

Event Time Altitude Azimuth Distance (km) Brightness Sun altitude
Rises 22:52:18 0° 338° (NNW) 4,199 7.4 -16.9°
Reaches altitude 10° 22:55:15 10° 338° (NNW) 3,098 6.7 -16.3°
Maximum altitude 23:02:22 89° 60° (ENE) 1,045 4.1 -14.8°
Drops below altitude 10° 23:08:37 10° 158° (SSE) 2,737 6.3 -13.4°
Sets 23:11:05 0° 158° (SSE) 3,680 7.0 -12.9°
